If you wish to contribute or participate in the discussions about articles you are invited to join SKYbrary as a registered user

 Actions

Ardabil Airport

From SKYbrary Wiki

OITL
Airport
ICAO: OITL – IATA: ADU
Summary
Name Ardabil Airport
Region Middle East
Territory Iran IR.gif
Location Gilan Deh, Ardabil
Serving Ardabil
Elevation 1,315.212 m
4,315 ft1,315.212 m
Coordinates 38° 19' 26.64" N, 48° 25' 12.54" E
Runways
Designator Length Width Surface ROPS
15/33 3299 m10,823.491 ft
45 m147.638 ft
PEM /


METAR
Observation OITL 231100Z 10008KT 9999 SCT010 BKN025 OVC060 01/M02 Q1023 RESN
Station Ardabil
Date/Time 23 April 2019 11:00:00
Wind direction 100°
Wind speed 08 kts
Lowest cloud amount scattered clouds
Temperature 1°C
Dew point
Humidity 80%
QNH 1023 hPa
Weather condition n/a

Airport serving Ardabil in north-western Iran.

Climatology

Cold Semi-arid climate (Köppen climate classification BSk).

Maps

Terrain

Loading map...

Airport Layout

Loading map...


Accidents & Serious Incidents at or in vicinity of OITL

None on SKYbrary